Home   Weather   Atascadero   Past weeks
Flag for USA

Past Weather in Atascadero, California, USA — Yesterday and Last 2 Weeks

Now
52 °F

Passing clouds.


Feels Like: 52 °F
Forecast: 62 / 52 °F
Wind: No wind

Location: Paso Robles Municipal Airport

Current Time: May 25, 2019 at 4:10:54 am

Latest Report: May 25, 2019 at 2:53 am


Visibility: 10 mi

Pressure: 29.86 "Hg

Humidity: 97%

Dew Point: 51 °F

Location of AtascaderoLocation

Past Weather in Atascadero — Graph

°F

Atascadero Temperature Yesterday

Maximum temperature yesterday: 81 °F (at 4:53 pm)
Minimum temperature yesterday: 50 °F (at 5:53 am)
Average temperature yesterday: 63 °F

High & Low Weather Summary for the Past Weeks

 TemperatureHumidityPressure
High89 °F (May 13, 4:53 pm)100% (May 13, 7:20 am)30.13 "Hg (May 13, 7:20 am)
Low40 °F (May 17, 5:53 am)16% (May 13, 2:53 pm)29.75 "Hg (May 22, 4:53 pm)
Average58 °F73%29.92 "Hg
* Reported May 10 2:53 am — May 25 2:53 am, Atascadero. Weather by CustomWeather, © 2019

Note: Actual official high and low records may vary slightly from our data, if they occured in-between our weather recording intervals... More about our weather records

Advertising

Atascadero Weather History for the Previous 24 Hours

Scroll right to see more
 ConditionsComfort  
Time TempWeatherWind HumidityBarometerVisibility
2:53 am
Sat, May 25
52 °FPassing clouds.No wind97%29.86 "Hg10 mi
2:31 am52 °FPassing clouds.3 mph97%29.89 "Hg10 mi
2:23 am52 °FPassing clouds.3 mph97%29.89 "Hg10 mi
1:53 am52 °FClear.5 mph97%29.89 "Hg10 mi
12:53 am53 °FOvercast.13 mph93%29.90 "Hg10 mi
11:53 pm
Fri, May 24
56 °FOvercast.13 mph87%29.91 "Hg10 mi
10:53 pm60 °FOvercast.9 mph78%29.91 "Hg10 mi
9:53 pm64 °FOvercast.9 mph65%29.91 "Hg10 mi
8:53 pm66 °FPassing clouds.9 mph59%29.90 "Hg10 mi
7:53 pm69 °FPartly sunny.9 mph55%29.88 "Hg10 mi
6:53 pm71 °FScattered clouds.14 mph51%29.85 "Hg10 mi
5:53 pm77 °FSunny.13 mph44%29.85 "Hg10 mi
4:53 pm81 °FPassing clouds.N/A32%29.85 "Hg10 mi
3:53 pm79 °FBroken clouds.8 mph35%29.88 "Hg10 mi
2:53 pm80 °FSunny.3 mph34%29.90 "Hg10 mi
1:53 pm77 °FSunny.7 mph39%29.93 "Hg10 mi
12:53 pm75 °FSunny.7 mph43%29.97 "Hg10 mi
11:53 am70 °FSunny.7 mph49%29.98 "Hg10 mi
10:53 am66 °FSunny.No wind56%30.00 "Hg10 mi
9:53 am63 °FSunny.No wind63%30.01 "Hg10 mi
8:53 am58 °FSunny.5 mph78%30.02 "Hg10 mi
7:53 am53 °FOvercast.5 mph89%30.03 "Hg10 mi
6:53 am51 °FPartly sunny.No wind96%30.02 "Hg10 mi
5:53 am50 °FPartly sunny.3 mph93%30.01 "Hg10 mi
5:13 am52 °FPassing clouds.3 mph89%30.01 "Hg10 mi
4:53 am54 °FOvercast.No wind90%30.00 "Hg10 mi
Weather by CustomWeather, © 2019

See weather overview